Weather History for EBOS - April, 2013

Change the Weather History Date:

Monday, April 1, 2013

  Actual Average Record
Temperature  
Mean Temperature 37 °F -  
Max Temperature 44 °F 53 °F 68 °F (2004)
Min Temperature 30 °F 40 °F 28 °F (2003)
Degree Days  
Heating Degree Days 28    
Moisture  
Dew Point 25 °F    
Average Humidity 62    
Maximum Humidity 80    
Minimum Humidity 33    
Precipitation  
Precipitation 0.00 in - - ()
Sea Level Pressure  
Sea Level Pressure 29.86 in    
Wind  
Wind Speed 12 mph ()    
Max Wind Speed 23 mph    
Max Gust Speed 33 mph    
Visibility 6.5 miles    
Events      
Averages and records for this station are not official NWS values.
T = Trace of Precipitation, MM = Missing Value Source: Averaged Metar Reports

Daily Weather History Graph

Daily Weather History Graph

Search for Another Location

Airport or City:

Trip Planner

Search our weather history database for the weather conditions in past years. The results will help you decide how hot, cold, wet, or windy it might be!

Date:

Astronomy

Apr. 01, 2013 Rise Set
Actual Time 7:24 AM CEST 8:21 PM CEST
Civil Twilight 6:50 AM CEST 8:55 PM CEST
Nautical Twilight 6:09 AM CEST 9:36 PM CEST
Astronomical Twilight 5:26 AM CEST 10:19 PM CEST
Moon 1:44 AM CEST (4/1) 10:24 AM CEST (4/1)
Length of Visible Light 14h 05m
Length of Day
12h 57m
Waning Gibbous, 70% of the Moon is Illuminated
Apr 1
Waning Gibbous
Apr 3
Last Quarter
Apr 10
New
Apr 18
First Quarter
Apr 25
Full

Hourly Weather History & Observations

Time (CEST) Temp. Windchill Dew Point Humidity Pressure Visibility Wind Dir Wind Speed Gust Speed Precip Events Conditions
12:20 AM 35.6 °F 28.6 °F 24.8 °F 65% 29.92 in 6.2 mi ENE 9.2 mph - N/A   Mostly Cloudy
12:50 AM 33.8 °F 27.0 °F 24.8 °F 70% 29.92 in 6.2 mi ENE 8.1 mph - N/A   Mostly Cloudy
1:20 AM 33.8 °F 26.4 °F 24.8 °F 70% 29.92 in 6.2 mi ENE 9.2 mph - N/A   Mostly Cloudy
1:50 AM 33.8 °F 26.4 °F 24.8 °F 70% 29.92 in 6.2 mi ENE 9.2 mph - N/A   Partly Cloudy
2:00 AM 34 °F - 25 °F 60% 29.92 in 9 mi ENE 8.9 mph - -   Mostly Cloudy
2:20 AM 33.8 °F 26.4 °F 24.8 °F 70% 29.89 in 6.2 mi ENE 9.2 mph - N/A   Partly Cloudy
2:50 AM 33.8 °F 26.4 °F 24.8 °F 70% 29.89 in 6.2 mi ENE 9.2 mph - N/A   Mostly Cloudy
3:20 AM 33.8 °F 25.8 °F 24.8 °F 70% 29.89 in 6.2 mi ENE 10.4 mph - N/A   Mostly Cloudy
3:50 AM 33.8 °F 25.8 °F 24.8 °F 70% 29.89 in 6.2 mi ENE 10.4 mph - N/A   Mostly Cloudy
4:20 AM 33.8 °F 25.8 °F 26.6 °F 75% 29.89 in 6.2 mi ENE 10.4 mph - N/A   Mostly Cloudy
4:50 AM 33.8 °F 25.8 °F 26.6 °F 75% 29.89 in 6.2 mi ENE 10.4 mph - N/A   Mostly Cloudy
5:00 AM 34 °F - 26 °F 64% 29.89 in 6 mi ENE 11.2 mph - -   Mostly Cloudy
5:20 AM 33.8 °F 25.8 °F 26.6 °F 75% 29.89 in 6.2 mi ENE 10.4 mph - N/A   Mostly Cloudy
5:50 AM 33.8 °F 25.8 °F 26.6 °F 75% 29.86 in 6.2 mi ENE 10.4 mph - N/A   Mostly Cloudy
6:20 AM 32.0 °F 23.0 °F 26.6 °F 80% 29.86 in 6.2 mi ENE 11.5 mph - N/A   Mostly Cloudy
6:50 AM 32.0 °F 23.6 °F 24.8 °F 75% 29.86 in 5.0 mi ENE 10.4 mph - N/A   Partly Cloudy
7:20 AM 30.2 °F 20.8 °F 24.8 °F 80% 29.86 in 4.3 mi ENE 11.5 mph - N/A   Partly Cloudy
7:50 AM 30.2 °F 21.3 °F 24.8 °F 80% 29.86 in 4.3 mi ENE 10.4 mph - N/A   Unknown
8:00 AM 30 °F - 24 °F 72% 29.88 in 4 mi ENE 11.2 mph - -   Scattered Clouds
8:20 AM 30.2 °F 21.9 °F 24.8 °F 80% 29.89 in 3.7 mi ENE 9.2 mph - N/A   Unknown
8:50 AM 32.0 °F 23.6 °F 24.8 °F 75% 29.89 in 3.7 mi ENE 10.4 mph - N/A   Unknown
9:20 AM 33.8 °F 24.8 °F 26.6 °F 75% 29.89 in 3.7 mi ENE 12.7 mph - N/A   Unknown
9:50 AM 33.8 °F 24.3 °F 26.6 °F 75% 29.89 in 5.0 mi ENE 13.8 mph - N/A   Unknown
10:20 AM 37.4 °F 28.9 °F 26.6 °F 65% 29.89 in 5.6 mi ENE 13.8 mph - N/A   Unknown
10:50 AM 37.4 °F 27.8 °F 24.8 °F 60% 29.89 in 6.2 mi ENE 17.3 mph - N/A   Partly Cloudy
11:00 AM 38 °F - 25 °F 47% 29.89 in 6 mi ENE 17.9 mph - -   Scattered Clouds
11:20 AM 39.2 °F 29.8 °F 23.0 °F 52% 29.86 in 6.2 mi East 18.4 mph 29.9 mph N/A   Partly Cloudy
11:50 AM 39.2 °F 29.6 °F 23.0 °F 52% 29.86 in 6.2 mi East 19.6 mph - N/A   Partly Cloudy
12:20 PM 41.0 °F 31.9 °F 23.0 °F 49% 29.86 in 6.2 mi East 19.6 mph - N/A   Partly Cloudy
12:50 PM 41.0 °F 31.6 °F 21.2 °F 45% 29.86 in 6.2 mi ENE 20.7 mph - N/A   Partly Cloudy
1:20 PM 41.0 °F 31.9 °F 23.0 °F 49% 29.86 in 6.2 mi East 19.6 mph - N/A   Partly Cloudy
1:50 PM 41.0 °F 31.6 °F 23.0 °F 49% 29.86 in 6.2 mi ENE 20.7 mph 32.2 mph N/A   Partly Cloudy
2:00 PM 42 °F - 22 °F 33% 29.87 in 19 mi ENE 20.1 mph - -   Scattered Clouds
2:20 PM 42.8 °F 34.0 °F 23.0 °F 46% 29.86 in 6.2 mi ENE 20.7 mph - N/A   Partly Cloudy
2:50 PM 44.6 °F 36.6 °F 23.0 °F 43% 29.83 in 6.2 mi ENE 19.6 mph 32.2 mph N/A   Partly Cloudy
3:20 PM 42.8 °F 34.3 °F 23.0 °F 46% 29.83 in 6.2 mi NNE 19.6 mph 31.1 mph N/A   Partly Cloudy
3:50 PM 41.0 °F 31.6 °F 28.4 °F 61% 29.83 in 6.2 mi NNE 20.7 mph - N/A   Partly Cloudy
4:20 PM 41.0 °F 31.4 °F 28.4 °F 61% 29.83 in 6.2 mi NNE 21.9 mph - N/A   Partly Cloudy
4:50 PM 41.0 °F 31.1 °F 28.4 °F 61% 29.83 in 6.2 mi NNE 23.0 mph - N/A   Partly Cloudy
5:00 PM 40 °F - 29 °F 54% 29.84 in 22 mi NNE 22.4 mph - -   Scattered Clouds
5:20 PM 41.0 °F 31.4 °F 30.2 °F 65% 29.83 in 6.2 mi NNE 21.9 mph 33.4 mph N/A   Partly Cloudy
5:50 PM 41.0 °F 31.4 °F 30.2 °F 65% 29.83 in 6.2 mi NNE 21.9 mph - N/A   Partly Cloudy
6:20 PM 39.2 °F 29.3 °F 28.4 °F 65% 29.83 in - NNE 20.7 mph - N/A   Clear
6:50 PM 39.2 °F 29.8 °F 26.6 °F 61% 29.83 in - NNE 18.4 mph - N/A   Clear
7:20 PM 39.2 °F 30.5 °F 26.6 °F 61% 29.83 in - NNE 16.1 mph - N/A   Clear
7:50 PM 39.2 °F 30.2 °F 28.4 °F 65% 29.83 in - NNE 17.3 mph - N/A   Clear
8:00 PM 38 °F - 28 °F 58% 29.83 in 16 mi NNE 17.9 mph - -   Clear
8:20 PM 39.2 °F 30.2 °F 28.4 °F 65% 29.83 in - NE 17.3 mph - N/A   Clear
8:50 PM 37.4 °F 28.5 °F 28.4 °F 70% 29.83 in - NE 15.0 mph - N/A   Clear
9:20 PM 37.4 °F 29.3 °F 28.4 °F 70% 29.83 in - NE 12.7 mph - N/A   Clear
9:50 PM 37.4 °F 29.8 °F 24.8 °F 60% 29.83 in - NE 11.5 mph - N/A   Clear
10:20 PM 37.4 °F 28.9 °F 21.2 °F 52% 29.83 in - ENE 13.8 mph - N/A   Clear
10:50 PM 37.4 °F 29.3 °F 19.4 °F 48% 29.83 in - ENE 12.7 mph - N/A   Clear
11:00 PM 38 °F - 20 °F 35% 29.85 in 12 mi ENE 11.2 mph - -   Clear
11:20 PM 37.4 °F 29.3 °F 21.2 °F 52% 29.83 in - ENE 12.7 mph - N/A   Clear
11:50 PM 35.6 °F 27.5 °F 21.2 °F 56% 29.86 in - ENE 11.5 mph - N/A   Clear